TimeCST,TemperatureF,Dew PointF,Humidity,Sea Level PressureIn,VisibilityMPH,Wind Direction,Wind SpeedMPH,Gust SpeedMPH,PrecipitationIn,Events,Conditions,WindDirDegrees,DateUTC
12:53 AM,28.9,27.0,92,29.83,7.0,WSW,3.5,-,N/A,,Partly Cloudy,240,2013-11-15 06:53:00
1:53 AM,27.0,26.1,96,29.83,6.0,Calm,Calm,-,N/A,,Clear,0,2013-11-15 07:53:00
2:53 AM,28.0,27.0,96,29.83,2.0,Calm,Calm,-,N/A,,Clear,0,2013-11-15 08:53:00
3:00 AM,28.4,26.6,93,29.78,1.5,Calm,Calm,-,N/A,,Clear,0,2013-11-15 09:00:00
3:07 AM,28.4,28.4,100,29.78,3.0,Calm,Calm,-,N/A,,Clear,0,2013-11-15 09:07:00
3:13 AM,28.4,26.6,93,29.78,1.8,Calm,Calm,-,N/A,,Clear,0,2013-11-15 09:13:00
3:22 AM,26.6,26.6,100,29.78,0.2,Calm,Calm,-,N/A,Fog,Light Freezing Fog,0,2013-11-15 09:22:00
3:50 AM,24.8,24.8,100,29.78,0.8,SW,3.5,-,N/A,,Mist,220,2013-11-15 09:50:00
3:53 AM,26.1,25.0,96,29.84,1.0,Calm,Calm,-,N/A,,Mist,0,2013-11-15 09:53:00
4:01 AM,26.6,26.6,100,29.79,2.0,SW,3.5,-,N/A,,Partly Cloudy,230,2013-11-15 10:01:00
4:10 AM,26.6,26.6,100,29.78,3.0,SW,3.5,-,N/A,,Clear,220,2013-11-15 10:10:00
4:39 AM,26.6,26.6,100,29.79,2.0,SW,3.5,-,N/A,,Clear,230,2013-11-15 10:39:00
4:46 AM,26.6,26.6,100,29.80,1.8,West,4.6,-,N/A,,Clear,270,2013-11-15 10:46:00
4:53 AM,27.0,26.1,96,29.86,3.0,West,3.5,-,N/A,,Clear,280,2013-11-15 10:53:00
5:05 AM,24.8,23.0,93,29.80,1.8,West,3.5,-,N/A,,Clear,260,2013-11-15 11:05:00
5:20 AM,24.8,23.0,93,29.79,0.5,SW,3.5,-,N/A,Fog,Light Freezing Fog,220,2013-11-15 11:20:00
5:32 AM,26.6,24.8,93,29.79,1.0,Calm,Calm,-,N/A,,Clear,0,2013-11-15 11:32:00
5:46 AM,26.6,24.8,93,29.79,3.0,SSW,3.5,-,N/A,,Clear,210,2013-11-15 11:46:00
5:53 AM,26.1,25.0,96,29.86,3.0,SSW,4.6,-,N/A,,Clear,210,2013-11-15 11:53:00
6:02 AM,26.6,24.8,93,29.80,2.5,WSW,3.5,-,N/A,,Clear,240,2013-11-15 12:02:00
6:22 AM,24.8,24.8,100,29.81,4.0,SW,4.6,-,N/A,,Clear,230,2013-11-15 12:22:00
6:53 AM,25.0,25.0,100,29.88,3.0,SSW,3.5,-,N/A,,Clear,210,2013-11-15 12:53:00
7:01 AM,26.6,24.8,93,29.81,2.0,Calm,Calm,-,N/A,,Clear,0,2013-11-15 13:01:00
7:11 AM,26.6,26.6,100,29.81,2.5,Calm,Calm,-,N/A,,Partly Cloudy,0,2013-11-15 13:11:00
7:42 AM,28.4,26.6,93,29.82,2.5,West,3.5,-,N/A,,Mostly Cloudy,280,2013-11-15 13:42:00
7:53 AM,28.9,28.0,96,29.88,2.0,WSW,3.5,-,N/A,,Overcast,250,2013-11-15 13:53:00
8:01 AM,28.4,28.4,100,29.82,1.8,WSW,4.6,-,N/A,,Mostly Cloudy,240,2013-11-15 14:01:00
8:12 AM,30.2,28.4,93,29.83,2.0,WSW,5.8,-,N/A,,Scattered Clouds,240,2013-11-15 14:12:00
8:49 AM,33.8,30.2,87,29.83,3.0,WSW,3.5,-,N/A,,Clear,250,2013-11-15 14:49:00
8:53 AM,33.1,32.0,96,29.89,3.0,WSW,3.5,-,N/A,,Clear,240,2013-11-15 14:53:00
9:53 AM,39.0,33.1,79,29.90,8.0,West,9.2,-,N/A,,Clear,260,2013-11-15 15:53:00
10:53 AM,41.0,34.0,76,29.89,10.0,SW,6.9,-,N/A,,Clear,230,2013-11-15 16:53:00
11:53 AM,45.0,35.1,68,29.87,10.0,SW,9.2,-,N/A,,Clear,220,2013-11-15 17:53:00
12:53 PM,46.9,35.1,63,29.86,10.0,SW,8.1,-,N/A,,Clear,230,2013-11-15 18:53:00
1:53 PM,48.9,36.0,61,29.84,10.0,SW,6.9,-,N/A,,Clear,220,2013-11-15 19:53:00
2:53 PM,48.9,35.1,59,29.84,10.0,SW,9.2,-,N/A,,Clear,230,2013-11-15 20:53:00
3:53 PM,46.9,35.1,63,29.84,10.0,SSW,5.8,-,N/A,,Clear,200,2013-11-15 21:53:00
4:53 PM,43.0,34.0,71,29.85,10.0,South,3.5,-,N/A,,Clear,190,2013-11-15 22:53:00
5:53 PM,41.0,34.0,76,29.86,10.0,South,5.8,-,N/A,,Clear,190,2013-11-15 23:53:00
6:53 PM,39.0,32.0,76,29.86,10.0,South,4.6,-,N/A,,Clear,190,2013-11-16 00:53:00
7:53 PM,35.1,30.9,85,29.84,10.0,Calm,Calm,-,N/A,,Clear,0,2013-11-16 01:53:00
8:53 PM,39.0,32.0,76,29.84,10.0,South,6.9,-,N/A,,Clear,190,2013-11-16 02:53:00
9:53 PM,39.0,32.0,76,29.83,10.0,South,4.6,-,N/A,,Clear,190,2013-11-16 03:53:00
10:53 PM,39.9,32.0,73,29.83,10.0,South,6.9,-,N/A,,Clear,180,2013-11-16 04:53:00
11:53 PM,39.9,33.1,77,29.81,10.0,SSW,4.6,-,N/A,,Clear,200,2013-11-16 05:53:00